Weather History for Palm Springs, CA

Change the Weather History Date:

Sunday, January 20, 2013

  Actual Average Record
Temperature  
Mean Temperature 63 °F 58 °F  
Max Temperature 79 °F 70 °F 88 °F (1971)
Min Temperature 46 °F 46 °F 28 °F (1943)
Degree Days  
Heating Degree Days 2 7  
Month to date heating degree days 219 164  
Since 1 July heating degree days 520 550  
Cooling Degree Days 0 0  
Month to date cooling degree days 0 0  
Year to date cooling degree days 0 0  
Growing Degree Days 12 (Base 50)    
Moisture  
Dew Point 8 °F    
Average Humidity 16    
Maximum Humidity 25    
Minimum Humidity 6    
Precipitation  
Precipitation 0.00 in 0.02 in 0.74 in (2010)
Month to date precipitation T 0.80  
Year to date precipitation T 0.80  
Since 1 July precipitation 1.22 3.60  
Snow  
Snow 0.00 in - - ()
Month to date snowfall 0.0  
Year to date snowfall 0.0  
Since 1 July snowfall 0.0  
Snow Depth 0.00 in    
Sea Level Pressure  
Sea Level Pressure 30.12 in    
Wind  
Wind Speed 4 mph (WNW)    
Max Wind Speed 12 mph    
Max Gust Speed 13 mph    
Visibility 10 miles    
Events      
T = Trace of Precipitation, MM = Missing Value Source: NWS Daily Summary

Daily Weather History Graph

Daily Weather History Graph

Search for Another Location

Airport:

Trip Planner

Search our weather history database for the weather conditions in past years. The results will help you decide how hot, cold, wet, or windy it might be!

Date:

Astronomy

Jan. 20, 2013 Rise Set
Actual Time 6:49 AM PST 5:05 PM PST
Civil Twilight 6:22 AM PST 5:32 PM PST
Nautical Twilight 5:51 AM PST 6:02 PM PST
Astronomical Twilight 5:22 AM PST 6:32 PM PST
Moon 12:08 PM PST 1:27 AM PST
Length of Visible Light 11h 09m
Length of Day
10h 16m
Waxing Gibbous, 67% of the Moon is Illuminated
Jan 20
Waxing Gibbous
Jan 26
Full
Feb 3
Last Quarter
Feb 9
New
Feb 17
First Quarter

Hourly Weather History & Observations

Time (PST) Temp. Windchill Dew Point Humidity Pressure Visibility Wind Dir Wind Speed Gust Speed Precip Events Conditions
12:53 AM 52.0 °F - 14.0 °F 22% 30.17 in 10.0 mi West 4.6 mph - N/A   Clear
1:53 AM 48.0 °F - 10.9 °F 22% 30.17 in 10.0 mi NW 9.2 mph - N/A   Clear
2:53 AM 48.0 °F - 10.9 °F 22% 30.16 in 10.0 mi NW 5.8 mph - N/A   Clear
3:53 AM 46.0 °F 42.5 °F 10.9 °F 24% 30.15 in 10.0 mi NW 6.9 mph - N/A   Clear
4:53 AM 50.0 °F - 12.0 °F 22% 30.15 in 10.0 mi NW 8.1 mph - N/A   Clear
5:53 AM 54.0 °F - 9.0 °F 17% 30.16 in 10.0 mi WNW 4.6 mph - N/A   Clear
6:53 AM 46.9 °F - 12.0 °F 24% 30.16 in 10.0 mi North 6.9 mph - N/A   Clear
7:53 AM 53.1 °F - 12.0 °F 20% 30.17 in 10.0 mi NW 5.8 mph - N/A   Clear
8:53 AM 63.0 °F - 16.0 °F 16% 30.17 in 10.0 mi West 3.5 mph - N/A   Clear
9:53 AM 71.1 °F - 14.0 °F 11% 30.17 in 10.0 mi Calm Calm - N/A   Clear
10:53 AM 73.9 °F - 7.0 °F 8% 30.16 in 10.0 mi Calm Calm - N/A   Clear
11:53 AM 75.9 °F - 3.9 °F 6% 30.12 in 10.0 mi Calm Calm - N/A   Clear
12:53 PM 77.0 °F - 3.0 °F 6% 30.08 in 10.0 mi Calm Calm - N/A   Clear
1:53 PM 78.1 °F - 5.0 °F 6% 30.06 in 10.0 mi SSE 3.5 mph - N/A   Clear
2:53 PM 77.0 °F - 3.9 °F 6% 30.05 in 10.0 mi Calm Calm - N/A   Clear
3:53 PM 77.0 °F - 3.9 °F 6% 30.04 in 10.0 mi South 3.5 mph - N/A   Clear
4:53 PM 73.0 °F - 6.1 °F 7% 30.05 in 10.0 mi West 4.6 mph - N/A   Clear
5:53 PM 71.1 °F - 3.9 °F 7% 30.07 in 10.0 mi NNW 9.2 mph - N/A   Clear
6:53 PM 64.9 °F - 10.0 °F 12% 30.09 in 10.0 mi West 5.8 mph - N/A   Clear
7:53 PM 64.0 °F - 8.1 °F 11% 30.10 in 10.0 mi West 6.9 mph - N/A   Clear
8:53 PM 62.1 °F - 7.0 °F 11% 30.10 in 10.0 mi West 6.9 mph - N/A   Clear
9:53 PM 61.0 °F - 7.0 °F 12% 30.11 in 10.0 mi WSW 6.9 mph - N/A   Clear
10:53 PM 62.1 °F - 6.1 °F 11% 30.10 in 10.0 mi West 8.1 mph - N/A   Clear
11:53 PM 60.1 °F - 7.0 °F 12% 30.09 in 10.0 mi WSW 5.8 mph - N/A   Clear